status,avgMeasuredTime,avgSpeed,extID,medianMeasuredTime,TIMESTAMP,vehicleCount,_id,REPORT_ID
OK,56,47,904,56,2014-08-01T08:00:00,3,20746959,185210
OK,116,23,904,116,2014-08-01T08:05:00,1,20747408,185210
OK,116,23,904,116,2014-08-01T08:10:00,3,20747781,185210
OK,122,22,904,122,2014-08-01T08:15:00,2,20748230,185210
OK,62,43,904,62,2014-08-01T08:20:00,3,20748679,185210
OK,62,43,904,62,2014-08-01T08:25:00,3,20749128,185210
OK,90,29,904,90,2014-08-01T08:30:00,1,20749577,185210
OK,90,29,904,90,2014-08-01T08:35:00,1,20750026,185210
OK,89,30,904,89,2014-08-01T08:40:00,4,20750475,185210
OK,89,30,904,89,2014-08-01T08:45:00,6,20750924,185210
OK,106,25,904,106,2014-08-01T08:50:00,3,20751373,185210
OK,129,20,904,129,2014-08-01T08:55:00,3,20751822,185210
OK,121,22,904,121,2014-08-01T09:00:00,5,20752271,185210
OK,108,24,904,108,2014-08-01T09:05:00,4,20752720,185210
OK,82,32,904,82,2014-08-01T09:10:00,1,20753169,185210
OK,139,19,904,139,2014-08-01T09:20:00,3,20754067,185210
OK,101,26,904,101,2014-08-01T09:25:00,4,20754516,185210
OK,79,33,904,79,2014-08-01T09:30:00,3,20754965,185210
OK,91,29,904,91,2014-08-01T09:35:00,4,20755414,185210
OK,81,33,904,81,2014-08-01T09:40:00,5,20755863,185210
OK,104,25,904,104,2014-08-01T09:45:00,2,20756312,185210
OK,97,27,904,97,2014-08-01T09:50:00,2,20756761,185210
OK,58,46,904,58,2014-08-01T09:55:00,4,20757210,185210
OK,55,48,904,55,2014-08-01T10:00:00,2,20757659,185210
OK,78,34,904,78,2014-08-01T10:05:00,5,20758108,185210
OK,76,35,904,76,2014-08-01T10:15:00,6,20759006,185210
OK,108,24,904,108,2014-08-01T10:20:00,6,20759455,185210
OK,129,20,904,129,2014-08-01T10:25:00,4,20759904,185210
OK,105,25,904,105,2014-08-01T10:30:00,5,20760353,185210
OK,83,32,904,83,2014-08-01T10:35:00,6,20760802,185210
OK,98,27,904,98,2014-08-01T10:40:00,4,20761251,185210
OK,116,23,904,116,2014-08-01T10:45:00,3,20761700,185210
OK,116,23,904,116,2014-08-01T10:50:00,1,20762149,185210
OK,69,38,904,69,2014-08-01T10:55:00,1,20762598,185210
OK,69,38,904,69,2014-08-01T11:00:00,1,20763047,185210
OK,69,38,904,69,2014-08-01T11:05:00,0,20763496,185210
OK,56,47,904,56,2014-08-01T11:10:00,1,20763945,185210
OK,129,20,904,129,2014-08-01T11:15:00,2,20764393,185210
OK,125,21,904,125,2014-08-01T11:20:00,5,20764842,185210
OK,86,31,904,86,2014-08-01T11:25:00,7,20765291,185210
OK,86,31,904,86,2014-08-01T11:30:00,5,20765740,185210
OK,139,19,904,139,2014-08-01T11:35:00,5,20766189,185210
OK,130,20,904,130,2014-08-01T11:40:00,5,20766638,185210
OK,82,32,904,82,2014-08-01T11:45:00,4,20767087,185210
OK,92,29,904,92,2014-08-01T11:50:00,4,20767536,185210
OK,107,25,904,107,2014-08-01T11:55:00,3,20767985,185210
OK,82,32,904,82,2014-08-01T12:00:00,7,20768434,185210
OK,77,34,904,77,2014-08-01T12:05:00,8,20768883,185210
OK,67,40,904,67,2014-08-01T12:10:00,4,20769332,185210
OK,69,38,904,69,2014-08-01T12:15:00,5,20769781,185210
OK,104,25,904,104,2014-08-01T12:20:00,4,20770230,185210
OK,103,26,904,103,2014-08-01T12:25:00,3,20770679,185210
OK,99,27,904,99,2014-08-01T12:30:00,6,20771128,185210
OK,88,30,904,88,2014-08-01T12:35:00,8,20771577,185210
OK,78,34,904,78,2014-08-01T12:40:00,6,20772026,185210
OK,86,31,904,86,2014-08-01T12:45:00,4,20772475,185210
OK,93,28,904,93,2014-08-01T12:50:00,4,20772924,185210
OK,127,21,904,127,2014-08-01T12:55:00,9,20773373,185210
OK,122,22,904,122,2014-08-01T13:00:00,10,20773822,185210
OK,60,44,904,60,2014-08-01T13:05:00,4,20774271,185210
OK,94,28,904,94,2014-08-01T13:10:00,3,20774720,185210
OK,94,28,904,94,2014-08-01T13:15:00,3,20775169,185210
OK,59,45,904,59,2014-08-01T13:20:00,3,20775618,185210
OK,59,45,904,59,2014-08-01T13:25:00,3,20776067,185210
OK,102,26,904,102,2014-08-01T13:30:00,1,20776516,185210
OK,117,22,904,117,2014-08-01T13:35:00,1,20776965,185210
OK,98,27,904,98,2014-08-01T13:40:00,4,20777414,185210
OK,107,25,904,107,2014-08-01T13:45:00,5,20777863,185210
OK,95,28,904,95,2014-08-01T13:50:00,4,20778312,185210
OK,93,28,904,93,2014-08-01T14:00:00,5,20779210,185210
OK,89,30,904,89,2014-08-01T14:05:00,6,20779659,185210
OK,102,26,904,102,2014-08-01T14:10:00,6,20780108,185210
OK,104,25,904,104,2014-08-01T14:15:00,3,20780557,185210
OK,88,30,904,88,2014-08-01T14:20:00,1,20781006,185210
OK,88,30,904,88,2014-08-01T14:25:00,0,20781455,185210
OK,93,28,904,93,2014-08-01T14:30:00,1,20781904,185210
OK,80,33,904,80,2014-08-01T14:35:00,2,20782353,185210
OK,67,40,904,67,2014-08-01T14:40:00,1,20782802,185210
OK,81,33,904,81,2014-08-01T14:45:00,2,20783251,185210
OK,84,31,904,84,2014-08-01T14:50:00,4,20783700,185210
OK,83,32,904,83,2014-08-01T14:55:00,4,20784149,185210
OK,83,32,904,83,2014-08-01T15:00:00,2,20784598,185210
OK,79,33,904,79,2014-08-01T15:05:00,2,20785047,185210
OK,79,33,904,79,2014-08-01T15:10:00,2,20785496,185210
OK,67,40,904,67,2014-08-01T15:15:00,3,20785945,185210
OK,85,31,904,85,2014-08-01T15:20:00,2,20786394,185210
OK,61,44,904,61,2014-08-01T15:25:00,1,20786843,185210
OK,67,40,904,67,2014-08-01T15:30:00,2,20787292,185210
OK,69,38,904,69,2014-08-01T15:35:00,2,20787741,185210
OK,65,41,904,65,2014-08-01T15:40:00,1,20788190,185210
OK,63,42,904,63,2014-08-01T15:45:00,2,20788639,185210
OK,53,50,904,53,2014-08-01T15:50:00,3,20789088,185210
OK,92,29,904,92,2014-08-01T15:55:00,2,20789537,185210
OK,97,27,904,97,2014-08-01T16:00:00,3,20789986,185210
OK,113,23,904,113,2014-08-01T16:05:00,1,20790435,185210
OK,90,29,904,90,2014-08-01T16:10:00,2,20790884,185210
OK,90,29,904,90,2014-08-01T16:15:00,2,20791333,185210
OK,84,31,904,84,2014-08-01T16:20:00,3,20791782,185210
OK,76,35,904,76,2014-08-01T16:25:00,4,20792231,185210
OK,54,49,904,54,2014-08-01T16:30:00,3,20792680,185210
OK,54,49,904,54,2014-08-01T16:35:00,3,20793129,185210
OK,53,50,904,53,2014-08-01T16:40:00,2,20793578,185210
OK,59,45,904,59,2014-08-01T16:45:00,1,20794027,185210
OK,59,45,904,59,2014-08-01T16:50:00,0,20794476,185210
OK,59,45,904,59,2014-08-01T16:55:00,0,20794925,185210
OK,107,25,904,107,2014-08-01T17:00:00,1,20795374,185210
OK,107,25,904,107,2014-08-01T17:05:00,3,20795823,185210
OK,104,25,904,104,2014-08-01T17:10:00,4,20796272,185210
OK,85,31,904,85,2014-08-01T17:15:00,3,20796721,185210
OK,74,36,904,74,2014-08-01T17:20:00,2,20797170,185210
OK,85,31,904,85,2014-08-01T17:25:00,1,20797619,185210
OK,85,31,904,85,2014-08-01T17:30:00,1,20798068,185210
OK,123,21,904,123,2014-08-01T17:35:00,3,20798517,185210
OK,89,30,904,89,2014-08-01T17:40:00,7,20798966,185210
OK,42,63,904,42,2014-08-01T17:45:00,4,20799415,185210
OK,42,63,904,42,2014-08-01T17:50:00,0,20799864,185210
OK,42,63,904,42,2014-08-01T17:55:00,0,20800313,185210
OK,42,63,904,42,2014-08-01T18:00:00,0,20800762,185210
OK,42,63,904,42,2014-08-01T18:05:00,0,20801211,185210
OK,42,63,904,42,2014-08-01T18:10:00,0,20801660,185210
OK,42,63,904,42,2014-08-01T18:15:00,0,20802109,185210
OK,47,57,904,47,2014-08-01T18:20:00,2,20802558,185210
OK,49,54,904,49,2014-08-01T18:25:00,3,20803007,185210
OK,80,33,904,80,2014-08-01T18:30:00,1,20803456,185210
OK,58,46,904,58,2014-08-01T18:35:00,1,20803905,185210
OK,58,46,904,58,2014-08-01T18:40:00,1,20804354,185210
OK,58,46,904,58,2014-08-01T18:45:00,0,20804803,185210
OK,87,30,904,87,2014-08-01T18:50:00,1,20805252,185210
OK,69,38,904,69,2014-08-01T18:55:00,2,20805701,185210
OK,51,52,904,51,2014-08-01T19:00:00,1,20806150,185210
OK,107,25,904,107,2014-08-01T19:05:00,1,20806599,185210
OK,107,25,904,107,2014-08-01T19:10:00,0,20807048,185210
OK,107,25,904,107,2014-08-01T19:15:00,0,20807497,185210
OK,130,20,904,130,2014-08-01T19:20:00,1,20807946,185210
OK,119,22,904,119,2014-08-01T19:25:00,2,20808395,185210
OK,108,24,904,108,2014-08-01T19:30:00,1,20808844,185210
OK,108,24,904,108,2014-08-01T19:35:00,0,20809293,185210
OK,108,24,904,108,2014-08-01T19:40:00,0,20809742,185210
OK,108,24,904,108,2014-08-01T19:45:00,0,20810191,185210
OK,108,24,904,108,2014-08-01T19:50:00,0,20810640,185210
OK,108,24,904,108,2014-08-01T19:55:00,0,20811089,185210
OK,108,24,904,108,2014-08-01T22:00:00,0,20816818,185210
OK,108,24,904,108,2014-08-01T22:05:00,0,20817267,185210
OK,78,34,904,78,2014-08-02T00:00:00,0,20823257,185210
OK,78,34,904,78,2014-08-02T00:05:00,0,20823706,185210
OK,78,34,904,78,2014-08-02T00:10:00,0,20824155,185210
OK,78,34,904,78,2014-08-02T00:15:00,0,20824604,185210
OK,78,34,904,78,2014-08-02T00:20:00,0,20825053,185210
OK,78,34,904,78,2014-08-02T00:25:00,0,20825502,185210
OK,78,34,904,78,2014-08-02T00:30:00,0,20825951,185210
OK,78,34,904,78,2014-08-02T00:35:00,0,20826400,185210
OK,78,34,904,78,2014-08-02T00:40:00,0,20826849,185210
OK,78,34,904,78,2014-08-02T00:45:00,0,20827298,185210
OK,78,34,904,78,2014-08-02T00:50:00,0,20827747,185210
OK,79,33,904,79,2014-08-02T00:55:00,1,20828196,185210
OK,79,33,904,79,2014-08-02T01:00:00,1,20828645,185210
OK,79,33,904,79,2014-08-02T01:05:00,0,20829094,185210
OK,79,33,904,79,2014-08-02T01:10:00,0,20829543,185210
OK,79,33,904,79,2014-08-02T01:15:00,0,20829992,185210
OK,79,33,904,79,2014-08-02T01:20:00,0,20830441,185210
OK,79,33,904,79,2014-08-02T01:25:00,0,20830890,185210
OK,79,33,904,79,2014-08-02T01:30:00,0,20831339,185210
OK,79,33,904,79,2014-08-02T01:35:00,0,20831788,185210
OK,79,33,904,79,2014-08-02T01:40:00,0,20832237,185210
OK,79,33,904,79,2014-08-02T01:45:00,0,20832686,185210
OK,79,33,904,79,2014-08-02T01:50:00,0,20833135,185210
OK,79,33,904,79,2014-08-02T01:55:00,0,20833584,185210
OK,79,33,904,79,2014-08-02T02:00:00,0,20834033,185210
OK,79,33,904,79,2014-08-02T02:05:00,0,20834482,185210
OK,79,33,904,79,2014-08-02T02:10:00,0,20834931,185210
OK,79,33,904,79,2014-08-02T02:15:00,0,20835380,185210
OK,79,33,904,79,2014-08-02T02:20:00,0,20835829,185210
OK,79,33,904,79,2014-08-02T02:25:00,0,20836278,185210
OK,79,33,904,79,2014-08-02T02:30:00,0,20836727,185210
OK,79,33,904,79,2014-08-02T02:35:00,0,20837176,185210
OK,79,33,904,79,2014-08-02T02:40:00,0,20837625,185210
OK,79,33,904,79,2014-08-02T02:45:00,0,20838074,185210
OK,79,33,904,79,2014-08-02T02:50:00,0,20838523,185210
OK,79,33,904,79,2014-08-02T02:55:00,0,20838972,185210
OK,79,33,904,79,2014-08-02T03:00:00,0,20839421,185210
OK,79,33,904,79,2014-08-02T03:05:00,0,20839870,185210
OK,79,33,904,79,2014-08-02T03:10:00,0,20840319,185210
OK,79,33,904,79,2014-08-02T03:15:00,0,20840768,185210
OK,79,33,904,79,2014-08-02T03:20:00,0,20841217,185210
OK,79,33,904,79,2014-08-02T03:25:00,0,20841666,185210
OK,79,33,904,79,2014-08-02T03:30:00,0,20842115,185210
OK,79,33,904,79,2014-08-02T03:35:00,0,20842564,185210
OK,79,33,904,79,2014-08-02T03:40:00,0,20843013,185210
OK,79,33,904,79,2014-08-02T03:45:00,0,20843462,185210
OK,79,33,904,79,2014-08-02T03:50:00,0,20843911,185210
OK,79,33,904,79,2014-08-02T03:55:00,0,20844360,185210
OK,125,21,904,125,2014-08-02T06:00:00,0,20851814,185210
OK,125,21,904,125,2014-08-02T06:05:00,0,20852263,185210
OK,125,21,904,125,2014-08-02T06:10:00,0,20852712,185210
OK,125,21,904,125,2014-08-02T06:15:00,0,20853161,185210
OK,125,21,904,125,2014-08-02T06:20:00,0,20853610,185210
OK,125,21,904,125,2014-08-02T06:25:00,0,20854059,185210
OK,125,21,904,125,2014-08-02T06:30:00,0,20854508,185210
OK,125,21,904,125,2014-08-02T06:35:00,0,20854957,185210
OK,125,21,904,125,2014-08-02T06:40:00,0,20855406,185210
OK,125,21,904,125,2014-08-02T06:45:00,0,20855855,185210
OK,125,21,904,125,2014-08-02T06:50:00,0,20856304,185210
OK,125,21,904,125,2014-08-02T06:55:00,0,20856753,185210
OK,125,21,904,125,2014-08-02T07:00:00,0,20857202,185210
OK,125,21,904,125,2014-08-02T07:05:00,0,20857651,185210
OK,139,19,904,139,2014-08-02T07:10:00,2,20858100,185210
OK,142,18,904,142,2014-08-02T07:15:00,1,20858549,185210
OK,142,18,904,142,2014-08-02T07:20:00,0,20858998,185210
OK,51,52,904,51,2014-08-02T07:25:00,1,20859447,185210
OK,51,52,904,51,2014-08-02T07:30:00,1,20859896,185210
OK,53,50,904,53,2014-08-02T07:35:00,2,20860345,185210
OK,60,44,904,60,2014-08-02T07:40:00,3,20860794,185210
OK,73,36,904,73,2014-08-02T07:45:00,1,20861243,185210
OK,73,36,904,73,2014-08-02T07:50:00,0,20861692,185210
OK,73,36,904,73,2014-08-02T07:55:00,0,20862141,185210
OK,73,36,904,73,2014-08-02T08:00:00,0,20862590,185210
OK,60,44,904,60,2014-08-02T08:05:00,1,20863039,185210
OK,69,38,904,69,2014-08-02T08:10:00,4,20863488,185210
OK,65,41,904,65,2014-08-02T08:15:00,2,20863937,185210
OK,52,51,904,52,2014-08-02T08:20:00,0,20864386,185210
OK,113,23,904,113,2014-08-02T08:25:00,1,20864835,185210
OK,109,24,904,109,2014-08-02T08:30:00,2,20865284,185210
OK,105,25,904,105,2014-08-02T08:35:00,0,20865733,185210
OK,105,25,904,105,2014-08-02T08:40:00,0,20866182,185210
OK,73,36,904,73,2014-08-02T08:45:00,2,20866631,185210
OK,73,36,904,73,2014-08-02T08:50:00,2,20867080,185210
OK,79,33,904,79,2014-08-02T08:55:00,0,20867529,185210
OK,81,33,904,81,2014-08-02T09:00:00,2,20867978,185210
OK,81,33,904,81,2014-08-02T09:05:00,2,20868427,185210
OK,59,45,904,59,2014-08-02T09:10:00,1,20868876,185210
OK,85,31,904,85,2014-08-02T09:15:00,2,20869325,185210
OK,111,24,904,111,2014-08-02T09:20:00,1,20869774,185210
OK,134,20,904,134,2014-08-02T09:25:00,1,20870223,185210
OK,107,25,904,107,2014-08-02T09:30:00,2,20870672,185210
OK,78,34,904,78,2014-08-02T09:35:00,1,20871121,185210
OK,96,27,904,96,2014-08-02T09:40:00,2,20871570,185210
OK,87,30,904,87,2014-08-02T09:45:00,3,20872019,185210
OK,98,27,904,98,2014-08-02T09:50:00,2,20872468,185210
OK,80,33,904,80,2014-08-02T09:55:00,5,20872917,185210
OK,85,31,904,85,2014-08-02T10:00:00,4,20873366,185210
OK,118,22,904,118,2014-08-02T10:05:00,2,20873815,185210
OK,81,33,904,81,2014-08-02T10:10:00,2,20874264,185210
OK,71,37,904,71,2014-08-02T10:15:00,1,20874713,185210
OK,101,26,904,101,2014-08-02T10:20:00,2,20875162,185210
OK,93,28,904,93,2014-08-02T10:25:00,1,20875611,185210
OK,114,23,904,114,2014-08-02T10:30:00,4,20876060,185210
OK,107,25,904,107,2014-08-02T10:35:00,2,20876509,185210
OK,107,25,904,107,2014-08-02T10:40:00,0,20876958,185210
OK,107,25,904,107,2014-08-02T10:45:00,0,20877407,185210
OK,117,22,904,117,2014-08-02T10:50:00,3,20877856,185210
OK,106,25,904,106,2014-08-02T10:55:00,4,20878305,185210
OK,55,48,904,55,2014-08-02T11:00:00,2,20878754,185210
OK,61,44,904,61,2014-08-02T11:05:00,1,20879203,185210
OK,61,44,904,61,2014-08-02T11:10:00,0,20879652,185210
OK,58,46,904,58,2014-08-02T11:15:00,1,20880101,185210
OK,81,33,904,81,2014-08-02T11:20:00,2,20880550,185210
OK,79,33,904,79,2014-08-02T11:25:00,2,20880999,185210
OK,53,50,904,53,2014-08-02T11:30:00,1,20881448,185210
OK,77,34,904,77,2014-08-02T11:35:00,3,20881897,185210
OK,77,34,904,77,2014-08-02T11:40:00,3,20882346,185210
OK,84,31,904,84,2014-08-02T11:45:00,2,20882795,185210
OK,61,44,904,61,2014-08-02T11:50:00,5,20883244,185210
OK,61,44,904,61,2014-08-02T11:55:00,3,20883693,185210
OK,141,19,904,141,2014-08-02T12:00:00,1,20884142,185210
OK,133,20,904,133,2014-08-02T12:05:00,2,20884591,185210
OK,98,27,904,98,2014-08-02T12:10:00,2,20885040,185210
OK,75,35,904,75,2014-08-02T12:15:00,4,20885489,185210
OK,88,30,904,88,2014-08-02T12:20:00,4,20885938,185210
OK,99,27,904,99,2014-08-02T12:25:00,1,20886387,185210
OK,92,29,904,92,2014-08-02T12:30:00,1,20886836,185210
OK,92,29,904,92,2014-08-02T12:35:00,2,20887285,185210
OK,80,33,904,80,2014-08-02T12:40:00,2,20887734,185210
OK,89,30,904,89,2014-08-02T12:45:00,1,20888183,185210
OK,89,30,904,89,2014-08-02T12:50:00,1,20888632,185210
OK,84,31,904,84,2014-08-02T12:55:00,1,20889081,185210
OK,110,24,904,110,2014-08-02T13:00:00,2,20889530,185210
OK,137,19,904,137,2014-08-02T13:05:00,1,20889979,185210
OK,104,25,904,104,2014-08-02T13:10:00,3,20890428,185210
OK,106,25,904,106,2014-08-02T13:15:00,6,20890877,185210
OK,108,24,904,108,2014-08-02T13:20:00,3,20891326,185210
OK,104,25,904,104,2014-08-02T13:25:00,0,20891775,185210
OK,104,25,904,104,2014-08-02T13:30:00,0,20892224,185210
OK,49,54,904,49,2014-08-02T13:35:00,1,20892673,185210
OK,60,44,904,60,2014-08-02T13:40:00,2,20893122,185210
OK,61,44,904,61,2014-08-02T13:45:00,2,20893571,185210
OK,51,52,904,51,2014-08-02T13:50:00,1,20894020,185210
OK,51,52,904,51,2014-08-02T13:55:00,0,20894469,185210
OK,51,52,904,51,2014-08-02T14:00:00,0,20894918,185210
OK,66,40,904,66,2014-08-02T14:05:00,1,20895367,185210
OK,66,40,904,66,2014-08-02T14:10:00,0,20895816,185210
OK,120,22,904,120,2014-08-02T14:15:00,3,20896265,185210
OK,120,22,904,120,2014-08-02T14:20:00,3,20896714,185210
OK,102,26,904,102,2014-08-02T14:25:00,3,20897163,185210
OK,120,22,904,120,2014-08-02T14:30:00,2,20897612,185210
OK,85,31,904,85,2014-08-02T14:35:00,3,20898061,185210
OK,56,47,904,56,2014-08-02T14:40:00,2,20898510,185210
OK,47,57,904,47,2014-08-02T14:45:00,1,20898959,185210
OK,116,23,904,116,2014-08-02T14:50:00,1,20899408,185210
OK,116,23,904,116,2014-08-02T14:55:00,1,20899857,185210
OK,100,26,904,100,2014-08-02T15:00:00,2,20900306,185210
OK,91,29,904,91,2014-08-02T15:05:00,4,20900755,185210
OK,80,33,904,80,2014-08-02T15:10:00,2,20901204,185210
OK,51,52,904,51,2014-08-02T15:15:00,1,20901653,185210
OK,51,52,904,51,2014-08-02T15:20:00,0,20902102,185210
OK,51,52,904,51,2014-08-02T15:25:00,0,20902551,185210
OK,51,52,904,51,2014-08-02T15:30:00,0,20903000,185210
OK,59,45,904,59,2014-08-02T15:35:00,1,20903449,185210
OK,59,45,904,59,2014-08-02T15:40:00,0,20903898,185210
OK,59,45,904,59,2014-08-02T15:45:00,0,20904347,185210
OK,82,32,904,82,2014-08-02T15:50:00,2,20904796,185210
OK,113,23,904,113,2014-08-02T15:55:00,3,20905245,185210
OK,113,23,904,113,2014-08-02T16:00:00,1,20905694,185210
OK,113,23,904,113,2014-08-02T16:05:00,0,20906143,185210
OK,113,23,904,113,2014-08-02T16:10:00,0,20906592,185210
OK,62,43,904,62,2014-08-02T16:15:00,1,20907041,185210
OK,62,43,904,62,2014-08-02T16:20:00,1,20907490,185210
OK,62,43,904,62,2014-08-02T16:25:00,0,20907939,185210
OK,63,42,904,63,2014-08-02T16:30:00,1,20908388,185210
OK,63,42,904,63,2014-08-02T16:35:00,0,20908837,185210
OK,63,42,904,63,2014-08-02T16:40:00,0,20909286,185210
OK,49,54,904,49,2014-08-02T16:45:00,1,20909735,185210
OK,49,54,904,49,2014-08-02T16:50:00,1,20910184,185210
OK,80,33,904,80,2014-08-02T16:55:00,1,20910633,185210
OK,80,33,904,80,2014-08-02T17:00:00,1,20911082,185210
OK,80,33,904,80,2014-08-02T17:05:00,0,20911531,185210
OK,80,33,904,80,2014-08-02T17:10:00,0,20911980,185210
OK,80,33,904,80,2014-08-02T17:15:00,0,20912429,185210
OK,80,33,904,80,2014-08-02T17:20:00,0,20912878,185210
OK,80,33,904,80,2014-08-02T17:25:00,0,20913327,185210
OK,107,25,904,107,2014-08-02T17:30:00,1,20913776,185210
OK,107,25,904,107,2014-08-02T17:35:00,1,20914225,185210
OK,107,25,904,107,2014-08-02T17:40:00,0,20914674,185210
OK,107,25,904,107,2014-08-02T17:45:00,0,20915123,185210
OK,111,24,904,111,2014-08-02T17:50:00,1,20915572,185210
OK,111,24,904,111,2014-08-02T17:55:00,1,20916021,185210
OK,111,24,904,111,2014-08-02T18:00:00,0,20916470,185210
OK,111,24,904,111,2014-08-02T18:05:00,0,20916919,185210
OK,111,24,904,111,2014-08-02T18:10:00,0,20917368,185210
OK,111,24,904,111,2014-08-02T18:15:00,0,20917817,185210
OK,111,24,904,111,2014-08-02T18:20:00,0,20918266,185210
OK,111,24,904,111,2014-08-02T18:25:00,0,20918715,185210
OK,70,38,904,70,2014-08-02T18:30:00,2,20919164,185210
OK,70,38,904,70,2014-08-02T18:35:00,0,20919613,185210
OK,70,38,904,70,2014-08-02T18:40:00,0,20920062,185210
OK,70,38,904,70,2014-08-02T18:45:00,0,20920511,185210
OK,70,38,904,70,2014-08-02T18:50:00,0,20920960,185210
OK,70,38,904,70,2014-08-02T18:55:00,0,20921409,185210
OK,99,27,904,99,2014-08-02T19:00:00,1,20921858,185210
OK,39,68,904,39,2014-08-02T19:05:00,3,20922307,185210
OK,37,72,904,37,2014-08-02T19:10:00,2,20922756,185210
OK,93,28,904,93,2014-08-02T19:15:00,2,20923205,185210
OK,93,28,904,93,2014-08-02T19:20:00,2,20923654,185210
OK,63,42,904,63,2014-08-02T19:25:00,0,20924103,185210
OK,63,42,904,63,2014-08-02T19:30:00,0,20924552,185210
OK,116,23,904,116,2014-08-02T19:35:00,1,20925001,185210
OK,116,23,904,116,2014-08-02T19:40:00,1,20925450,185210
OK,116,23,904,116,2014-08-02T19:45:00,0,20925899,185210
OK,116,23,904,116,2014-08-02T19:50:00,0,20926348,185210
OK,116,23,904,116,2014-08-02T19:55:00,0,20926797,185210
OK,61,44,904,61,2014-08-02T20:00:00,2,20927246,185210
OK,61,44,904,61,2014-08-02T20:05:00,0,20927695,185210
OK,61,44,904,61,2014-08-02T20:10:00,0,20928144,185210
OK,61,44,904,61,2014-08-02T20:15:00,0,20928593,185210
OK,61,44,904,61,2014-08-02T20:20:00,0,20929042,185210
OK,61,44,904,61,2014-08-02T20:25:00,0,20929491,185210
OK,131,20,904,131,2014-08-02T20:30:00,1,20929940,185210
OK,131,20,904,131,2014-08-02T20:35:00,1,20930389,185210
OK,131,20,904,131,2014-08-02T20:40:00,0,20930838,185210
OK,131,20,904,131,2014-08-02T20:45:00,0,20931287,185210
OK,100,26,904,100,2014-08-02T20:50:00,1,20931736,185210
OK,100,26,904,100,2014-08-02T20:55:00,1,20932185,185210
OK,100,26,904,100,2014-08-02T21:00:00,0,20932634,185210
OK,100,26,904,100,2014-08-02T21:05:00,0,20933083,185210
OK,100,26,904,100,2014-08-02T21:10:00,0,20933532,185210
OK,58,46,904,58,2014-08-02T21:15:00,1,20933981,185210
OK,58,46,904,58,2014-08-02T21:20:00,1,20934430,185210
OK,58,46,904,58,2014-08-02T21:25:00,0,20934879,185210
OK,58,46,904,58,2014-08-02T21:30:00,0,20935328,185210
OK,58,46,904,58,2014-08-02T21:35:00,0,20935777,185210
OK,58,46,904,58,2014-08-02T21:40:00,0,20936226,185210
OK,84,31,904,84,2014-08-02T21:45:00,1,20936675,185210
OK,84,31,904,84,2014-08-02T21:50:00,0,20937124,185210
OK,84,31,904,84,2014-08-02T21:55:00,0,20937573,185210
OK,84,31,904,84,2014-08-02T22:00:00,0,20938022,185210
OK,84,31,904,84,2014-08-02T22:05:00,0,20938471,185210
OK,84,31,904,84,2014-08-02T22:10:00,0,20938920,185210
OK,84,31,904,84,2014-08-02T22:15:00,0,20939369,185210
OK,84,31,904,84,2014-08-02T22:20:00,0,20939818,185210
OK,84,31,904,84,2014-08-02T22:25:00,0,20940267,185210
OK,84,31,904,84,2014-08-02T22:30:00,0,20940716,185210
OK,84,31,904,84,2014-08-02T22:35:00,0,20941165,185210
OK,84,31,904,84,2014-08-02T22:40:00,0,20941614,185210
OK,84,31,904,84,2014-08-02T22:45:00,0,20942063,185210
OK,84,31,904,84,2014-08-02T22:50:00,0,20942512,185210
OK,84,31,904,84,2014-08-02T22:55:00,0,20942961,185210
OK,84,31,904,84,2014-08-02T23:00:00,0,20943410,185210
OK,84,31,904,84,2014-08-02T23:10:00,0,20943859,185210
OK,84,31,904,84,2014-08-02T23:15:00,0,20944308,185210
OK,84,31,904,84,2014-08-02T23:20:00,0,20944757,185210
OK,84,31,904,84,2014-08-02T23:25:00,0,20945206,185210
OK,84,31,904,84,2014-08-02T23:30:00,0,20945655,185210
OK,84,31,904,84,2014-08-02T23:35:00,0,20946104,185210
OK,84,31,904,84,2014-08-02T23:40:00,0,20946553,185210
OK,84,31,904,84,2014-08-02T23:45:00,0,20947002,185210
OK,53,50,904,53,2014-08-02T23:50:00,1,20947451,185210
OK,53,50,904,53,2014-08-02T23:55:00,0,20947900,185210
OK,53,50,904,53,2014-08-03T00:00:00,0,20948349,185210
OK,53,50,904,53,2014-08-03T00:05:00,0,20948798,185210
OK,53,50,904,53,2014-08-03T00:10:00,0,20949246,185210
OK,196,13,904,196,2014-08-03T00:15:00,1,20949695,185210
OK,196,13,904,196,2014-08-03T00:20:00,1,20950144,185210
OK,196,13,904,196,2014-08-03T00:25:00,0,20950593,185210
OK,196,13,904,196,2014-08-03T00:30:00,0,20951042,185210
OK,196,13,904,196,2014-08-03T00:35:00,0,20951491,185210
OK,196,13,904,196,2014-08-03T00:40:00,0,20951940,185210
OK,196,13,904,196,2014-08-03T00:45:00,0,20952389,185210
OK,196,13,904,196,2014-08-03T00:50:00,0,20952838,185210
OK,196,13,904,196,2014-08-03T00:55:00,0,20953287,185210
OK,196,13,904,196,2014-08-03T01:00:00,0,20953736,185210
OK,196,13,904,196,2014-08-03T01:05:00,0,20954185,185210
OK,196,13,904,196,2014-08-03T01:10:00,0,20954634,185210
OK,196,13,904,196,2014-08-03T01:15:00,0,20955083,185210
OK,196,13,904,196,2014-08-03T01:20:00,0,20955532,185210
OK,196,13,904,196,2014-08-03T01:25:00,0,20955981,185210
OK,196,13,904,196,2014-08-03T01:30:00,0,20956430,185210
OK,196,13,904,196,2014-08-03T01:35:00,0,20956879,185210
OK,196,13,904,196,2014-08-03T01:40:00,0,20957328,185210
OK,196,13,904,196,2014-08-03T01:45:00,0,20957777,185210
OK,196,13,904,196,2014-08-03T01:50:00,0,20958226,185210